Date String (YYYY-MM-DD hh:mm:ss) UTC,Instrument flags,Ambient pressure (hPa),Sample flow (lpm),Bypass flow (lpm),Sample temperature (°C),Ambient temperature (°C),ASC tube jacket temperature (°C),LED temperature (°C),Box temperature (°C),Sample RH (%),Span deviation,Mass concentration (μg/m³),Mass concentration (μg/m³),Mass concentration (μg/m³)
DateTimeUTC,F1_M11,P_M11,Q1_M11,Q2_M11,T1_M11,T2_M11,T3_M11,T4_M11,T5_M11,U1_M11,ZSPAN_M11,X0_M11,X2_M11,X1_M11
2021-09-28 04:00:00,,0824.3,5.01,0.00,29.4,27.5,00.0,38.5,31.0,12.6,0000.0,0018.57,0005.33,0003.96
2021-09-28 04:01:00,,0824.3,4.99,0.00,29.4,27.8,00.0,38.5,31.1,12.6,0000.0,0018.53,0005.36,0003.98
2021-09-28 04:02:00,,0824.3,5.01,0.00,29.4,28.0,00.0,38.5,31.2,12.6,0000.0,0017.64,0005.43,0003.97
2021-09-28 04:03:00,,0824.3,5.01,0.00,29.4,28.2,00.0,38.5,31.2,12.6,0000.0,0016.94,0005.47,0003.95
2021-09-28 04:04:00,,0824.2,5.00,0.00,29.5,28.4,00.0,38.5,31.3,12.6,0000.0,0016.57,0005.53,0003.95
2021-09-28 04:05:00,,0824.2,4.97,0.00,29.5,28.5,00.0,38.5,31.3,12.5,0000.0,0016.86,0005.49,0003.95
2021-09-28 04:06:00,,0824.2,5.00,0.00,29.6,28.6,00.0,38.5,31.4,12.5,0000.0,0017.51,0005.44,0003.95
2021-09-28 04:07:00,,0824.4,5.00,0.00,29.6,28.7,00.0,38.5,31.4,12.8,0000.0,0018.33,0005.36,0003.94
2021-09-28 04:08:00,,0824.2,4.99,0.00,29.6,28.8,00.0,38.6,31.5,12.8,0000.0,0018.83,0005.32,0003.93
2021-09-28 04:09:00,,0824.3,4.99,0.00,29.7,28.8,00.0,38.6,31.5,12.6,0000.0,0018.50,0005.29,0003.93
2021-09-28 04:10:00,,0824.2,5.01,0.00,29.7,28.2,00.0,38.6,31.4,12.7,0000.0,0016.88,0005.24,0003.91
2021-09-28 04:11:00,,0824.2,4.98,0.00,29.6,26.5,00.0,38.6,30.9,12.8,0000.0,0015.88,0005.29,0003.90
2021-09-28 04:12:00,,0824.2,5.01,0.00,29.5,26.4,00.0,38.6,30.9,12.8,0000.0,0015.99,0005.28,0003.89
2021-09-28 04:13:00,,0824.3,5.00,0.00,29.4,26.7,00.0,38.6,31.0,12.9,0000.0,0016.07,0005.23,0003.88
2021-09-28 04:14:00,,0824.3,5.00,0.00,29.4,27.1,00.0,38.5,31.0,12.9,0000.0,0016.34,0005.21,0003.86
2021-09-28 04:15:00,,0824.2,4.98,0.00,29.4,27.5,00.0,38.5,31.1,13.0,0000.0,0016.56,0005.19,0003.85
2021-09-28 04:16:00,,0824.2,5.01,0.00,29.4,27.8,00.0,38.5,31.1,13.0,0000.0,0016.18,0005.18,0003.84
2021-09-28 04:17:00,,0824.3,4.99,0.00,29.4,28.0,00.0,38.5,31.2,12.9,0000.0,0016.00,0005.16,0003.82
2021-09-28 04:18:00,,0824.3,5.01,0.00,29.5,28.2,00.0,38.5,31.3,12.9,0000.0,0015.72,0005.12,0003.81
2021-09-28 04:19:00,,0824.2,4.99,0.00,29.5,28.4,00.0,38.5,31.3,12.9,0000.0,0015.06,0005.07,0003.81
2021-09-28 04:20:00,,0824.2,5.02,0.00,29.6,28.5,00.0,38.5,31.4,12.8,0000.0,0014.70,0005.06,0003.81
2021-09-28 04:21:00,,0824.2,5.00,0.00,29.6,28.6,00.0,38.6,31.4,12.8,0000.0,0014.46,0005.04,0003.80
2021-09-28 04:22:00,,0824.3,4.99,0.00,29.6,28.7,00.0,38.6,31.5,12.8,0000.0,0014.93,0005.03,0003.80
2021-09-28 04:23:00,,0824.2,5.00,0.00,29.7,28.8,00.0,38.6,31.5,12.7,0000.0,0014.33,0005.02,0003.81
2021-09-28 04:24:00,,0824.3,5.01,0.00,29.7,28.9,00.0,38.6,31.6,12.8,0000.0,0014.62,0005.01,0003.81
2021-09-28 04:25:00,,0824.2,4.99,0.00,29.7,28.1,00.0,38.6,31.4,12.8,0000.0,0014.91,0004.99,0003.82
2021-09-28 04:26:00,,0824.2,4.99,0.00,29.6,26.0,00.0,38.6,30.8,12.8,0000.0,0016.57,0004.95,0003.84
2021-09-28 04:27:00,,0824.2,5.01,0.00,29.4,25.3,00.0,38.6,30.6,12.9,0000.0,0017.56,0004.96,0003.84
2021-09-28 04:28:00,,0824.2,5.00,0.00,29.3,25.7,00.0,38.5,30.6,13.0,0000.6,0017.20,0005.00,0003.85
2021-09-28 04:29:00,,0824.2,4.99,0.00,29.2,26.2,00.0,38.5,30.7,13.0,0002.3,0016.78,0005.00,0003.85
2021-09-28 04:30:00,,0824.2,5.00,0.00,29.2,26.7,00.0,38.4,30.8,13.0,0002.4,0016.98,0005.01,0003.85
2021-09-28 04:31:00,,0824.1,5.00,0.00,29.2,27.1,00.0,38.4,30.9,13.0,0002.9,0017.10,0005.03,0003.85
2021-09-28 04:32:00,,0824.1,5.00,0.00,29.2,27.4,00.0,38.4,30.9,13.0,0000.0,0017.47,0005.04,0003.86
2021-09-28 04:33:00,,0824.1,5.00,0.00,29.3,27.7,00.0,38.4,31.0,13.0,0000.8,0017.30,0005.04,0003.88
2021-09-28 04:34:00,,0824.1,5.01,0.00,29.3,27.9,00.0,38.4,31.1,13.0,0000.8,0017.23,0005.02,0003.87
2021-09-28 04:35:00,,0824.1,4.99,0.00,29.3,28.1,00.0,38.4,31.1,12.9,0000.0,0016.96,0005.06,0003.86
2021-09-28 04:36:00,,0824.1,5.01,0.00,29.4,28.2,00.0,38.4,31.1,12.9,0000.0,0016.38,0005.12,0003.86
2021-09-28 04:37:00,,0824.1,4.99,0.00,29.4,28.3,00.0,38.4,31.2,12.9,0000.0,0016.11,0005.14,0003.85
2021-09-28 04:38:00,,0824.1,5.01,0.00,29.4,28.4,00.0,38.4,31.2,12.9,0000.0,0015.14,0005.16,0003.84
2021-09-28 04:39:00,,0824.1,5.01,0.00,29.5,28.5,00.0,38.5,31.3,12.8,0000.0,0014.51,0005.11,0003.82
2021-09-28 04:40:00,,0824.1,5.00,0.00,29.5,28.6,00.0,38.5,31.3,12.8,0000.0,0014.37,0005.11,0003.81
2021-09-28 04:41:00,,0824.1,4.99,0.00,29.6,28.6,00.0,38.5,31.4,12.8,0000.0,0014.11,0005.10,0003.79
2021-09-28 04:42:00,,0824.1,5.01,0.00,29.6,28.7,00.0,38.5,31.4,12.8,0000.0,0014.12,0005.07,0003.79
2021-09-28 04:43:00,,0824.1,5.01,0.00,29.6,28.7,00.0,38.6,31.5,12.8,0000.0,0013.55,0005.04,0003.78
2021-09-28 04:44:00,,0824.1,4.99,0.00,29.7,28.8,00.0,38.6,31.5,12.8,0000.0,0013.23,0005.00,0003.74
2021-09-28 04:45:00,,0824.1,4.99,0.00,29.7,28.9,00.0,38.6,31.5,12.8,0000.0,0013.44,0005.03,0003.73
2021-09-28 04:46:00,,0824.1,5.01,0.00,29.7,28.6,00.0,38.6,31.5,12.8,0000.0,0013.31,0004.97,0003.72
2021-09-28 04:47:00,,0824.1,4.99,0.00,29.6,26.7,00.0,38.6,31.1,12.9,0000.0,0013.23,0004.91,0003.70
2021-09-28 04:48:00,,0824.1,5.01,0.00,29.5,26.2,00.0,38.6,30.9,13.0,0000.0,0012.34,0004.88,0003.68
2021-09-28 04:49:00,,0824.1,4.99,0.00,29.4,26.5,00.0,38.6,30.9,13.1,0000.0,0011.92,0004.80,0003.66
2021-09-28 04:50:00,,0824.1,5.00,0.00,29.4,26.9,00.0,38.5,31.0,13.2,0000.0,0012.13,0004.80,0003.65
2021-09-28 04:51:00,,0824.1,5.00,0.00,29.4,27.2,00.0,38.5,31.0,13.2,0000.0,0011.75,0004.81,0003.64
2021-09-28 04:52:00,,0824.1,5.01,0.00,29.4,27.5,00.0,38.5,31.1,13.2,0000.0,0011.78,0004.80,0003.63
2021-09-28 04:53:00,,0824.1,4.99,0.00,29.4,27.8,00.0,38.5,31.1,13.2,0000.0,0011.64,0004.79,0003.61
2021-09-28 04:54:00,,0824.1,5.01,0.00,29.4,28.0,00.0,38.5,31.2,13.3,0000.0,0012.10,0004.78,0003.60
2021-09-28 04:55:00,,0824.1,4.99,0.00,29.5,28.2,00.0,38.5,31.2,13.3,0000.0,0012.39,0004.79,0003.58
2021-09-28 04:56:00,,0824.1,5.01,0.00,29.5,28.3,00.0,38.5,31.3,13.3,0000.0,0012.03,0004.70,0003.57
2021-09-28 04:57:00,,0824.0,5.01,0.00,29.5,28.4,00.0,38.5,31.3,13.2,0000.0,0011.53,0004.64,0003.56
2021-09-28 04:58:00,,0824.1,4.98,0.00,29.6,28.5,00.0,38.6,31.4,13.2,0000.0,0011.41,0004.59,0003.55
2021-09-28 04:59:00,,0824.1,5.00,0.00,29.6,28.6,00.0,38.6,31.4,13.2,0000.0,0010.88,0004.56,0003.54
